Hourly Data Report for November 07, 2019

All times are specified in Local Standard Time (LST). Add 1 hour to adjust for Daylight Saving Time where and when it is observed.

PINAWA
MANITOBA
Current Station Operator: ECCC - MSC

50°10'38.020" N
96°03'53.000" W
268.00 m
503B1ER
71448
WEA

Download Data

Hourly Data (November 2019)
Hourly Data Report for November 7, 2019
TIME Temp Definition
°C
Dew Point Definition
°C
Rel Hum Definition
%
Wind Dir Definition
10's deg

Wind Spd Definition
km/h
Visibility Definition
km
Stn Press Definition
kPa
Hmdx Definition


Wind Chill Definition


Weather Definition


00:00 -10.3 LegendMM LegendMM 26 6   100.05   -14 LegendNANA
01:00 -11.0 LegendMM LegendMM 24 6   100.03   -15 LegendNANA
02:00 -11.0 LegendMM LegendMM 25 6   100.00   -15 LegendNANA
03:00 -11.0 LegendMM LegendMM 25 5   99.97   -14 LegendNANA
04:00 -10.9 LegendMM LegendMM 23 5   99.93   -14 LegendNANA
05:00 -10.9 LegendMM LegendMM 24 6   99.91   -15 LegendNANA
06:00 -11.0 LegendMM LegendMM 21 6   99.90   -15 LegendNANA
07:00 -11.0 LegendMM LegendMM 22 5   99.87   -14 LegendNANA
08:00 -11.6 LegendMM LegendMM 22 5   99.88   -15 LegendNANA
09:00 -11.5 LegendMM LegendMM 23 6   99.90   -15 LegendNANA
10:00 -10.3 LegendMM LegendMM 21 6   99.92   -14 LegendNANA
11:00 -8.8 LegendMM LegendMM 22 6   99.92   -12 LegendNANA
12:00 -7.8 LegendMM LegendMM 25 7   99.88   -11 LegendNANA
13:00 -7.6 LegendMM LegendMM 25 7   99.83   -11 LegendNANA
14:00 -7.5 LegendMM LegendMM 29 11   99.80   -13 LegendNANA
15:00 -8.1 LegendMM LegendMM 25 7   99.78   -12 LegendNANA
16:00 -7.6 LegendMM LegendMM 23 9   99.79   -12 LegendNANA
17:00 -8.4 LegendMM LegendMM 26 6   99.79   -12 LegendNANA
18:00 -10.8 LegendMM LegendMM 20 2   99.75   -12 LegendNANA
19:00 -14.3 LegendMM LegendMM 0 1   99.75   -15 LegendNANA
20:00 -14.9 LegendMM LegendMM 17 2   99.74   -16 LegendNANA
21:00 -15.0 LegendMM LegendMM 17 3   99.69   -17 LegendNANA
22:00 -12.5 LegendMM LegendMM 15 4   99.66   -15 LegendNANA
23:00 -12.1 LegendMM LegendMM 17 4   99.61   -15 LegendNANA

Notes on Data Quality.

Legend

  • E = Estimated
  • M = Missing
  • NA = Not Available
Date modified: